Weather History for Philip, SD

Change the Weather History Date:

Thursday, March 21, 2013

  Actual Average Record
Temperature  
Mean Temperature 30 °F 37 °F  
Max Temperature 39 °F 50 °F 76 °F (2009)
Min Temperature 20 °F 24 °F -9 °F (1965)
Degree Days  
Heating Degree Days 35 28  
Month to date heating degree days 656 675  
Since 1 July heating degree days 5682 6040  
Cooling Degree Days 0 0  
Month to date cooling degree days 0 0  
Year to date cooling degree days 0 0  
Moisture  
Dew Point 19 °F    
Average Humidity 72    
Maximum Humidity 92    
Minimum Humidity 52    
Precipitation  
Precipitation 0.20 in 0.04 in 1.25 in (1987)
Month to date precipitation 0.34 0.87  
Year to date precipitation 1.16 1.65  
Sea Level Pressure  
Sea Level Pressure 29.84 in    
Wind  
Wind Speed 18 mph (East)    
Max Wind Speed 29 mph    
Max Gust Speed 33 mph    
Visibility 8 miles    
Events Snow    
T = Trace of Precipitation, MM = Missing Value Source: NWS Daily Summary

Daily Weather History Graph

Daily Weather History Graph

Search for Another Location

Airport:

Trip Planner

Search our weather history database for the weather conditions in past years. The results will help you decide how hot, cold, wet, or windy it might be!

Date:

Astronomy

Mar. 21, 2013 Rise Set
Actual Time 6:47 AM MDT 7:00 PM MDT
Civil Twilight 6:18 AM MDT 7:29 PM MDT
Nautical Twilight 5:44 AM MDT 8:03 PM MDT
Astronomical Twilight 5:09 AM MDT 8:37 PM MDT
Moon 1:22 PM MDT (3/21) 3:20 AM MDT (3/21)
Length of Visible Light 13h 10m
Length of Day
12h 13m
Waxing Gibbous, 69% of the Moon is Illuminated
Mar 21
Waxing Gibbous
Mar 27
Full
Apr 2
Last Quarter
Apr 10
New
Apr 18
First Quarter

Hourly Weather History & Observations

Time (MDT) Temp. Windchill Dew Point Humidity Pressure Visibility Wind Dir Wind Speed Gust Speed Precip Events Conditions
12:55 AM 23.0 °F 9.2 °F 10.0 °F 58% 29.91 in 10.0 mi East 17.3 mph 26.5 mph N/A   Overcast
1:55 AM 23.0 °F 8.7 °F 10.0 °F 58% 29.90 in 10.0 mi East 18.4 mph - N/A   Overcast
2:55 AM 21.0 °F 4.6 °F 10.0 °F 63% 29.85 in 10.0 mi East 23.0 mph 26.5 mph N/A   Overcast
3:55 AM 19.9 °F 5.7 °F 10.0 °F 65% 29.85 in 10.0 mi East 16.1 mph - N/A   Overcast
4:55 AM 19.9 °F 5.7 °F 10.9 °F 68% 29.84 in 10.0 mi East 16.1 mph 24.2 mph N/A   Overcast
5:55 AM 21.0 °F 7.6 °F 12.9 °F 71% 29.84 in 10.0 mi East 15.0 mph - N/A   Overcast
6:55 AM 21.9 °F 7.8 °F 15.1 °F 75% 29.83 in 10.0 mi East 17.3 mph 23.0 mph N/A   Overcast
7:55 AM 23.0 °F 8.7 °F 16.0 °F 74% 29.83 in 10.0 mi ESE 18.4 mph 28.8 mph N/A   Overcast
8:55 AM 26.1 °F 11.6 °F 18.0 °F 71% 29.82 in 10.0 mi ESE 21.9 mph 28.8 mph N/A   Overcast
9:55 AM 28.9 °F 16.5 °F 19.0 °F 67% 29.81 in 10.0 mi ESE 18.4 mph - N/A   Overcast
10:55 AM 33.1 °F 21.5 °F 19.9 °F 59% 29.79 in 10.0 mi East 19.6 mph - N/A   Partly Cloudy
11:55 AM 37.0 °F 26.2 °F 21.9 °F 54% 29.78 in 10.0 mi East 21.9 mph 27.6 mph N/A   Mostly Cloudy
12:55 PM 36.0 °F 24.7 °F 21.0 °F 55% 29.77 in 10.0 mi East 21.9 mph 31.1 mph N/A   Overcast
1:55 PM 37.0 °F 25.9 °F 21.0 °F 52% 29.76 in 10.0 mi East 23.0 mph - N/A   Overcast
2:55 PM 36.0 °F 23.9 °F 21.0 °F 55% 29.76 in 10.0 mi East 25.3 mph 31.1 mph N/A   Overcast
3:55 PM 37.0 °F 25.4 °F 21.9 °F 54% 29.77 in 10.0 mi East 25.3 mph 32.2 mph N/A   Overcast
4:55 PM 37.0 °F 26.7 °F 21.9 °F 54% 29.78 in 10.0 mi East 19.6 mph 28.8 mph N/A   Overcast
5:55 PM 34.0 °F 21.5 °F 21.9 °F 61% 29.82 in 10.0 mi East 24.2 mph 29.9 mph N/A   Overcast
6:55 PM 30.9 °F 20.2 °F 21.9 °F 69% 29.85 in 10.0 mi East 15.0 mph 24.2 mph N/A   Overcast
7:55 PM 30.0 °F 19.1 °F 21.9 °F 72% 29.88 in 10.0 mi East 15.0 mph - N/A   Overcast
8:55 PM 28.9 °F 18.6 °F 23.0 °F 78% 29.89 in 3.0 mi ESE 12.7 mph - 0.00 in Snow Light Snow
9:05 PM 28.4 °F 17.5 °F 23.0 °F 80% 29.83 in 2.5 mi East 13.8 mph 20.7 mph 0.00 in Snow Light Snow
9:10 PM 28.4 °F 18.0 °F 24.8 °F 86% 29.84 in 4.0 mi East 12.7 mph - 0.00 in Snow Light Snow
9:55 PM 28.0 °F 17.5 °F 24.1 °F 85% 29.91 in 2.5 mi East 12.7 mph - 0.01 in Snow Light Snow
10:09 PM 28.4 °F 18.5 °F 24.8 °F 86% 29.85 in 1.8 mi East 11.5 mph - 0.02 in Snow Light Snow
10:55 PM 27.0 °F 17.3 °F 25.0 °F 92% 29.91 in 0.8 mi East 10.4 mph - 0.06 in Snow Light Snow
11:08 PM 26.6 °F 16.8 °F 24.8 °F 93% 29.86 in 1.0 mi East 10.4 mph - 0.02 in Snow Light Snow
11:51 PM 26.6 °F 17.5 °F 24.8 °F 93% 29.86 in 0.8 mi East 9.2 mph - 0.06 in Snow Light Snow
11:55 PM 27.0 °F 18.0 °F 25.0 °F 92% 29.91 in 0.8 mi East 9.2 mph - 0.06 in Snow Light Snow